Temperature
14 14 14 14 13 14 14 14 14 14 14 15 15 16 16 16 15 15 15 15 15 15 15 15 15 15 15 15 14 14 14 14 14 14 14 14 14 15
13 13 13 13 13 13 14 14 14 13 14 15 15 16 15 16 15 15 15 15 15 15 15 15 15 15 15 15 14 14 14 14 14 14 13 14 14 15
14 13 13 13 13 13 13 13 13 13 13 14 15 15 15 16 16 15 15 15 15 15 15 14 14 15 14 14 14 14 14 14 14 14 14 14 14 14
13 13 13 13 13 13 13 13 13 13 13 14 14 15 15 15 15 15 15 15 15 15 15 14 14 14 14 14 14 14 14 14 14 14 14 14 14 14
13 13 13 12 12 12 13 13 13 13 13 13 14 14 14 15 15 15 15 15 15 15 15 14 14 14 14 14 14 14 14 14 15 15 15 14 14 14
13 13 13 13 12 12 12 12 13 13 13 13 13 13 14 14 15 15 15 15 15 15 14 14 14 14 14 14 14 14 14 14 14 14 14 14 14 14
14 13 13 13 13 12 12 12 12 12 12 12 12 13 13 13 14 15 15 15 15 14 14 14 14 14 13 13 14 14 14 14 14 14 14 14 14 14
14 14 13 13 13 13 12 12 12 12 12 12 12 12 12 13 13 13 14 14 14 14 14 14 14 14 13 13 14 14 14 14 14 14 14 14 14 14
14 13 13 13 13 13 13 12 12 12 12 12 12 12 12 12 12 12 13 13 14 14 13 14 14 14 13 13 13 14 14 14 14 14 14 14 14 14
14 13 13 13 13 13 13 13 13 13 12 12 12 12 11 12 12 12 12 12 13 13 13 13 14 14 14 13 13 13 13 14 14 14 14 14 14 14
14 13 13 13 13 13 13 13 13 13 13 12 12 12 11 11 11 11 12 12 12 13 13 13 13 13 14 14 13 13 13 13 13 13 13 13 13 13
13 13 13 13 13 13 13 13 13 13 13 13 12 12 11 11 11 11 11 11 11 12 12 12 12 12 13 13 13 13 13 13 13 13 13 13 13 13
13 13 13 13 13 13 13 13 13 13 13 13 13 12 12 12 11 11 11 11 11 11 11 12 12 12 11 12 12 12 12 12 12 12 12 12 12 12
12 12 12 12 12 12 12 13 13 13 13 13 13 12 12 12 12 11 11 11 11 11 11 11 11 11 11 11 11 12 12 12 12 12 12 12 12 12
11 11 12 12 12 12 12 12 12 12 12 12 12 12 12 11 11 11 11 11 11 11 11 11 11 11 11 11 11 11 11 11 11 11 11 11 11 11
11 11 11 11 11 12 12 12 12 12 12 12 11 11 11 11 11 10 10 10 10 10 10 10 10 10 10 10 10 11 11 10 11 10 10 10 10 11
10 10 11 11 11 11 11 11 11 11 11 11 11 10 10 10 10 10 10 10 10 10 10 10 10 10 10 10 10 10 10 10 10 10 10 10 10 10
10 10 10 10 10 10 10 10 10 10 10 10 10 10 10 10 10 10 10 10 10 10 10 10 10 10 10 10 10 10 10 10 10 9 9 10 10 10
9 9 10 10 10 10 10 10 10 10 10 10 10 10 10 10 10 9 9 9 9 9 9 9 9 9 9 9 9 9 9 9 9 9 9 9 9 10
9 9 9 9 10 10 10 10 10 10 10 10 9 9 9 9 9 9 9 9 9 9 9 9 9 9 8 8 9 9 8 8 8 8 8 8 9 9
9 9 9 9 9 9 9 9 9 9 9 9 9 9 9 9 9 8 8 8 8 8 8 8 8 8 8 8 8 8 8 8 8 8 8 8 8 8
8 8 8 9 9 9 9 9 9 9 8 8 8 8 8 8 8 8 8 8 8 8 8 8 8 8 8 8 8 8 8 8 7 7 7 7 7 7
8 8 8 8 8 8 8 8 8 8 8 8 8 8 8 8 8 8 8 8 8 8 8 8 8 7 7 7 7 7 7 7 7 7 7 7 7 7
Wind_Speed
6 7 6 5 5 5 5 5 5 3 4 5 4 5 10 13 15 14 14 13 12 10 9 7 5 3 2 1 1 2 4 5 5 5 5 6 7 8
4 6 6 5 5 5 5 6 6 6 5 4 5 3 5 9 14 14 15 14 14 13 11 9 7 5 4 3 2 2 4 5 6 6 5 5 6 7
4 5 6 6 6 6 6 6 7 7 8 5 3 3 5 6 7 11 13 13 13 14 14 12 10 8 7 6 5 4 4 4 5 6 5 5 5 5
4 4 5 5 7 6 7 8 8 8 8 7 4 4 6 5 4 6 8 11 12 14 15 14 13 11 10 9 8 6 5 4 4 4 4 4 3 4
4 4 5 5 6 6 7 8 8 8 8 7 5 4 3 2 2 3 4 6 9 12 14 16 16 15 14 12 10 8 7 5 4 3 2 2 1 3
5 5 4 5 6 6 6 7 7 7 7 6 5 3 3 2 2 3 4 6 6 7 10 12 15 17 16 14 13 11 10 9 7 6 5 3 2 2
4 4 4 5 6 5 4 4 5 5 5 5 4 4 4 3 4 4 5 3 4 5 5 6 9 10 13 15 16 15 14 12 11 10 9 7 6 5
5 4 4 4 5 6 6 6 6 5 5 4 3 4 5 5 4 4 4 3 3 4 5 4 5 8 10 13 17 17 17 16 15 15 13 12 10 8
6 5 4 4 5 4 5 6 7 9 8 4 4 4 4 4 5 5 5 4 4 3 4 3 3 6 9 14 18 20 20 19 18 18 17 15 13 11
6 6 6 5 4 5 5 5 6 6 7 6 5 5 3 3 3 3 4 4 3 2 4 3 3 4 4 9 16 20 21 22 20 19 18 17 16 14
4 5 6 5 6 7 6 6 7 7 9 11 10 8 7 7 5 3 3 3 3 3 5 3 2 2 3 4 9 15 19 21 21 20 19 18 18 16
1 2 5 6 6 6 7 7 7 7 5 5 7 8 6 7 8 6 4 4 2 3 4 4 2 2 3 2 1 3 8 14 19 20 21 20 19 13
1 1 2 5 6 6 6 7 8 5 3 4 3 3 2 2 2 2 3 3 4 4 4 5 3 2 2 3 2 1 2 3 7 12 18 20 20 16
2 2 3 5 6 7 4 7 8 5 3 3 2 2 1 1 0 0 1 2 3 3 3 5 3 3 2 2 4 2 2 3 3 4 7 12 16 19
3 5 7 7 5 3 3 5 5 5 4 3 3 2 1 1 1 1 2 2 2 2 0 3 3 3 3 3 3 2 2 2 3 3 4 6 6 8
3 4 4 2 2 2 3 3 3 4 3 3 3 2 2 1 1 1 1 1 2 2 3 2 2 2 3 4 4 5 3 3 2 3 4 5 6 10
4 2 1 1 2 2 3 3 3 4 3 3 3 2 2 1 1 1 0 0 0 1 2 2 3 4 5 5 5 6 5 5 5 4 4 4 6 8
1 1 1 1 2 2 3 3 3 4 3 3 3 2 2 0 1 1 1 1 2 2 2 2 2 2 2 4 7 7 6 5 4 4 5 5 6 6
4 4 3 4 4 4 4 4 3 3 3 4 3 3 2 1 1 1 1 2 2 3 2 2 1 1 3 5 4 4 4 4 3 3 4 5 6 5
7 6 6 6 6 6 5 5 5 4 4 4 4 3 3 2 2 2 2 2 3 3 3 3 3 3 4 4 4 3 4 5 4 5 4 4 6 7
8 8 8 7 7 6 6 6 6 5 5 4 4 4 3 2 2 2 3 4 3 3 4 4 4 5 3 3 4 4 3 5 6 5 4 4 4 3
7 8 8 8 7 7 6 6 6 6 6 5 4 4 3 3 3 4 4 4 4 4 5 4 4 2 2 3 5 5 4 4 4 6 6 5 3 3
7 7 7 7 7 7 6 7 7 5 5 5 4 4 3 3 3 3 4 4 4 4 4 4 3 1 2 3 4 4 5 6 4 4 2 3 4 5
Wind_Direction
219 214 210 207 204 194 176 174 184 226 259 248 240 223 214 213 216 213 213 215 214 212 208 209 210 209 200 164 38 353 341 340 334 326 331 340 348 359
210 213 214 209 209 206 202 197 199 208 237 247 237 233 203 216 216 213 214 216 218 217 217 218 220 224 228 232 247 298 324 328 316 306 304 320 342 355
217 217 224 213 213 211 207 207 210 208 232 246 236 228 205 212 206 207 214 215 219 220 222 223 224 228 233 238 240 252 279 303 305 301 294 298 320 344
230 230 236 226 220 215 214 217 216 211 219 238 235 219 222 213 195 194 206 218 220 222 224 226 227 228 230 234 236 239 248 269 289 308 302 294 303 331
227 228 236 228 229 222 220 220 218 216 215 225 230 205 197 170 167 192 200 215 222 224 226 229 231 232 231 233 237 242 249 257 267 292 305 300 308 323
232 236 237 229 233 230 227 224 216 212 210 218 220 198 187 169 170 189 208 211 220 217 220 225 231 236 236 236 238 242 246 251 251 252 255 254 248 281
228 239 244 241 240 233 226 219 210 210 208 214 210 193 191 182 203 196 213 193 218 209 210 221 227 234 236 237 238 238 237 238 238 238 238 237 235 245
207 218 235 245 248 243 242 227 207 201 206 213 218 220 214 202 183 183 183 175 240 199 195 231 208 234 238 234 234 233 232 230 230 231 230 230 231 234
197 198 208 218 227 234 250 249 233 225 216 204 219 228 217 202 184 187 195 199 217 181 163 238 204 237 241 237 235 234 232 229 226 225 225 226 227 228
196 197 202 218 219 216 224 238 241 239 232 226 223 223 211 197 194 200 198 210 220 186 172 234 222 234 241 236 236 232 229 227 225 224 225 225 226 228
193 197 203 220 236 222 212 233 247 250 242 234 230 228 225 222 220 226 221 221 237 219 190 217 248 247 254 252 245 237 232 228 226 225 225 225 226 228
185 211 222 232 249 236 207 216 238 248 229 226 231 239 238 243 250 244 235 227 220 239 188 199 240 240 294 274 286 259 238 235 230 229 227 225 222 221
278 263 258 263 275 272 222 210 226 224 206 207 206 211 216 221 237 242 228 220 219 235 186 185 208 210 258 300 305 279 232 228 225 229 229 226 221 213
318 311 297 296 294 291 249 223 224 198 164 161 168 175 177 187 190 231 259 254 250 251 209 183 197 195 215 268 288 307 294 244 224 224 222 225 225 222
330 317 311 303 300 291 258 215 174 155 153 157 166 166 145 118 88 43 21 13 355 338 238 200 211 204 207 240 267 277 299 283 232 229 223 220 221 220
338 328 341 22 64 84 80 103 124 141 144 146 138 116 94 89 79 43 33 17 8 350 355 322 263 233 240 243 254 264 242 261 263 232 236 237 230 225
314 310 332 81 89 84 81 87 94 102 98 96 106 100 85 76 44 4 344 305 295 309 315 319 305 278 262 265 271 270 264 252 240 213 214 244 241 231
341 13 21 68 98 103 104 92 85 91 89 99 102 103 107 99 314 302 272 263 278 284 289 295 316 324 305 267 239 263 271 272 258 218 216 251 266 239
57 50 43 54 72 80 82 82 82 85 91 97 97 92 84 50 347 327 321 303 295 294 293 292 288 296 300 300 293 237 254 286 280 254 233 238 262 261
42 46 47 52 59 63 65 72 77 76 73 73 71 62 49 35 7 338 323 304 298 299 299 289 264 251 253 273 282 292 237 258 279 282 269 247 255 264
39 45 46 49 52 54 56 60 62 61 60 60 54 45 33 25 360 331 317 304 294 289 294 291 278 266 257 256 269 275 274 258 262 278 294 290 279 265
43 45 45 46 47 48 49 50 53 50 45 42 32 24 14 4 346 334 327 318 307 298 293 292 294 291 245 254 276 288 296 301 291 285 271 267 287 297
44 46 44 39 37 38 39 40 41 37 29 18 7 357 351 344 334 328 325 323 319 320 318 314 313 292 272 276 289 296 304 315 318 321 316 332 315 308
Height
1516 1517 1518 1520 1523 1526 1528 1530 1533 1534 1534 1536 1538 1539 1541 1542 1543 1544 1545 1546 1546 1547 1547 1548 1548 1547 1547 1546 1545 1544 1543 1542 1541 1541 1542 1542 1541 1541
1512 1513 1515 1517 1519 1521 1523 1525 1527 1530 1531 1531 1533 1536 1537 1538 1540 1541 1542 1543 1544 1544 1545 1546 1546 1545 1545 1544 1543 1542 1541 1540 1540 1540 1540 1540 1539 1539
1509 1510 1511 1512 1514 1516 1518 1520 1522 1524 1525 1527 1529 1531 1533 1534 1536 1537 1539 1540 1541 1542 1543 1543 1543 1543 1542 1542 1541 1540 1539 1538 1537 1537 1537 1537 1537 1537
1507 1506 1507 1508 1509 1511 1513 1514 1517 1519 1521 1522 1525 1526 1528 1529 1531 1533 1534 1536 1537 1538 1539 1540 1540 1540 1540 1539 1538 1537 1536 1536 1535 1535 1535 1535 1535 1535
1505 1504 1504 1504 1505 1507 1508 1510 1512 1514 1516 1518 1519 1521 1523 1524 1526 1528 1529 1531 1533 1534 1535 1535 1536 1536 1536 1536 1535 1535 1534 1533 1533 1532 1532 1532 1532 1532
1503 1502 1502 1502 1503 1503 1504 1506 1507 1509 1511 1512 1514 1516 1517 1519 1520 1522 1525 1526 1528 1529 1530 1531 1531 1532 1532 1532 1531 1531 1531 1531 1530 1530 1529 1529 1528 1528
1502 1502 1501 1501 1501 1501 1502 1503 1504 1505 1506 1508 1509 1511 1512 1514 1516 1518 1520 1521 1522 1524 1524 1526 1527 1527 1527 1527 1527 1527 1526 1526 1526 1526 1526 1525 1525 1525
1501 1501 1500 1500 1501 1501 1501 1502 1502 1503 1504 1505 1505 1507 1507 1509 1511 1513 1515 1516 1517 1519 1519 1521 1521 1522 1522 1522 1522 1522 1521 1522 1522 1522 1522 1522 1521 1521
1498 1499 1499 1500 1500 1500 1500 1501 1501 1502 1502 1503 1503 1504 1504 1505 1506 1508 1509 1510 1512 1513 1514 1514 1516 1517 1518 1517 1517 1517 1517 1517 1517 1517 1517 1518 1518 1518
1495 1496 1497 1498 1498 1499 1499 1499 1500 1500 1500 1501 1501 1501 1502 1502 1503 1504 1504 1506 1507 1509 1509 1509 1510 1512 1512 1512 1512 1512 1512 1513 1513 1513 1513 1514 1514 1514
1491 1492 1494 1495 1496 1497 1497 1498 1498 1499 1499 1498 1499 1499 1499 1500 1500 1500 1501 1502 1502 1504 1505 1505 1505 1506 1507 1507 1508 1507 1508 1508 1509 1509 1509 1510 1510 1510
1487 1488 1489 1491 1493 1494 1495 1496 1496 1497 1497 1497 1497 1496 1497 1497 1497 1497 1498 1498 1499 1500 1501 1502 1502 1502 1502 1502 1503 1503 1503 1503 1504 1504 1504 1505 1505 1505
1483 1484 1485 1487 1488 1490 1491 1493 1494 1494 1494 1495 1495 1495 1495 1495 1495 1495 1495 1496 1496 1497 1498 1499 1499 1499 1500 1499 1499 1499 1499 1499 1499 1499 1499 1500 1500 1500
1481 1481 1482 1483 1484 1486 1487 1489 1490 1491 1492 1492 1493 1494 1494 1494 1494 1494 1494 1494 1495 1495 1496 1496 1496 1496 1496 1495 1494 1494 1494 1493 1493 1493 1494 1494 1494 1494
1478 1478 1478 1479 1480 1481 1483 1485 1487 1488 1489 1490 1491 1492 1492 1493 1493 1494 1494 1494 1494 1494 1494 1494 1494 1494 1493 1492 1491 1489 1489 1488 1488 1487 1488 1488 1488 1489
1475 1475 1475 1475 1476 1478 1480 1482 1483 1485 1486 1488 1489 1490 1491 1492 1492 1493 1493 1493 1493 1493 1492 1492 1492 1491 1490 1489 1488 1486 1485 1484 1483 1483 1482 1482 1482 1482
1472 1472 1472 1473 1474 1475 1477 1479 1481 1483 1485 1487 1488 1489 1490 1491 1491 1492 1492 1492 1491 1491 1490 1490 1489 1488 1487 1486 1484 1483 1481 1480 1480 1478 1477 1477 1477 1477
1470 1471 1472 1473 1474 1475 1477 1479 1481 1483 1485 1487 1488 1489 1490 1490 1491 1491 1490 1490 1489 1488 1488 1487 1485 1484 1483 1482 1481 1479 1478 1477 1475 1474 1473 1472 1471 1472
1472 1472 1473 1473 1475 1476 1478 1480 1482 1484 1485 1487 1488 1489 1489 1489 1489 1489 1488 1488 1487 1486 1485 1484 1482 1481 1479 1478 1477 1476 1474 1472 1471 1469 1468 1467 1466 1465
1476 1476 1475 1476 1477 1478 1480 1481 1483 1485 1486 1487 1488 1488 1488 1488 1487 1487 1486 1485 1484 1483 1482 1481 1479 1478 1477 1475 1473 1472 1471 1468 1466 1464 1463 1461 1460 1459
1481 1480 1480 1480 1481 1481 1482 1483 1485 1486 1486 1487 1487 1487 1487 1486 1485 1484 1483 1482 1481 1479 1478 1477 1476 1475 1473 1471 1469 1467 1466 1464 1462 1460 1458 1456 1454 1452
1486 1485 1485 1484 1484 1485 1485 1485 1486 1486 1486 1486 1486 1486 1485 1484 1483 1482 1481 1479 1478 1476 1474 1473 1472 1470 1468 1467 1465 1463 1461 1459 1457 1455 1453 1451 1449 1446
1490 1489 1488 1487 1487 1487 1486 1486 1486 1486 1486 1485 1485 1484 1483 1482 1481 1480 1479 1477 1475 1473 1471 1469 1467 1466 1464 1462 1461 1458 1456 1454 1452 1450 1449 1446 1445 1443